| time (UTC) | temp F | wind direction | speed knots | gust knots | rain 1hr in | rain 24hr in | rain mn in | humidity % | barometer mb |
| 20260510164409 | 74 | 300 | 1.7 | 1.7 | 0.00 | 0.00 | 0.00 | 75 | 987.5 |
| 20260510163909 | 74 | 298 | 4.3 | 4.3 | 0.00 | 0.00 | 0.00 | 77 | 987.4 |
| 20260510163409 | 74 | 285 | 2.6 | 2.6 | 0.00 | 0.00 | 0.00 | 76 | 987.5 |
| 20260510162909 | 73 | 275 | 2.6 | 2.6 | 0.00 | 0.00 | 0.00 | 76 | 987.6 |
| 20260510162409 | 74 | 286 | 4.3 | 4.3 | 0.00 | 0.00 | 0.00 | 74 | 987.5 |
| 20260510161909 | 74 | 318 | 2.6 | 2.6 | 0.00 | 0.00 | 0.00 | 76 | 987.6 |
| 20260510161409 | 73 | 255 | 1.7 | 1.7 | 0.00 | 0.00 | 0.00 | 76 | 987.5 |
| 20260510160909 | 73 | 264 | 2.6 | 2.6 | 0.00 | 0.00 | 0.00 | 78 | 987.5 |
| 20260510160409 | 72 | 258 | 0.9 | 0.9 | 0.00 | 0.00 | 0.00 | 80 | 987.5 |
| 20260510155909 | 72 | 240 | 0.9 | 0.9 | 0.00 | 0.00 | 0.00 | 81 | 987.5 |
| 20260510155409 | 72 | 262 | 0.9 | 0.9 | 0.00 | 0.00 | 0.00 | 81 | 987.5 |
| 20260510154909 | 71 | 305 | 1.7 | 1.7 | 0.00 | 0.00 | 0.00 | 81 | 987.6 |
| 20260510154409 | 71 | 328 | 4.3 | 4.3 | 0.00 | 0.00 | 0.00 | 82 | 987.6 |
| 20260510153909 | 72 | 298 | 4.3 | 4.3 | 0.00 | 0.00 | 0.00 | 82 | 987.6 |
| 20260510153409 | 71 | 268 | 1.7 | 1.7 | 0.00 | 0.00 | 0.00 | 83 | 987.7 |
| 20260510152909 | 70 | 294 | 1.7 | 1.7 | 0.00 | 0.00 | 0.00 | 83 | 987.6 |
| 20260510152409 | 70 | 294 | 2.6 | 2.6 | 0.00 | 0.00 | 0.00 | 84 | 987.4 |
| 20260510151909 | 70 | 330 | 2.6 | 2.6 | 0.00 | 0.00 | 0.00 | 83 | 987.4 |
| 20260510151409 | 70 | 296 | 3.5 | 3.5 | 0.00 | 0.00 | 0.00 | 84 | 987.4 |
| 20260510150909 | 70 | 306 | 0.9 | 0.9 | 0.00 | 0.00 | 0.00 | 83 | 987.4 |
| 20260510150409 | 70 | 336 | 0.0 | 0.0 | 0.00 | 0.00 | 0.00 | 84 | 987.3 |
| 20260510145909 | 70 | 327 | 1.7 | 1.7 | 0.00 | 0.00 | 0.00 | 84 | 987.4 |
| 20260510145409 | 70 | 300 | 1.7 | 1.7 | 0.00 | 0.00 | 0.00 | 83 | 987.4 |
| 20260510144909 | 70 | 261 | 3.5 | 3.5 | 0.00 | 0.00 | 0.00 | 83 | 987.4 |
| 20260510144409 | 70 | 304 | 0.0 | 0.0 | 0.00 | 0.00 | 0.00 | 83 | 987.3 |
| 20260510143909 | 71 | 193 | 0.9 | 0.9 | 0.00 | 0.00 | 0.00 | 83 | 987.2 |
| 20260510143409 | 70 | 192 | 0.9 | 0.9 | 0.00 | 0.00 | 0.00 | 84 | 987.2 |
| 20260510142909 | 69 | 271 | 1.7 | 1.7 | 0.00 | 0.00 | 0.00 | 84 | 987.3 |
| 20260510142409 | 69 | 266 | 2.6 | 2.6 | 0.00 | 0.00 | 0.00 | 84 | 987.2 |
| 20260510141909 | 69 | 0.0 | 0.0 | 0.00 | 0.00 | 0.00 | 83 | 987.2 | |
| 20260510141409 | 69 | 279 | 0.9 | 0.9 | 0.00 | 0.00 | 0.00 | 84 | 987.2 |
| 20260510140909 | 70 | 278 | 1.7 | 1.7 | 0.00 | 0.00 | 0.00 | 83 | 987.2 |
| 20260510140409 | 70 | 0.0 | 0.0 | 0.00 | 0.00 | 0.00 | 84 | 987.1 | |
| 20260510135909 | 69 | 0.0 | 0.0 | 0.00 | 0.00 | 0.00 | 85 | 987.1 | |
| 20260510135409 | 68 | 0.0 | 0.0 | 0.00 | 0.00 | 0.00 | 86 | 987.1 | |
| 20260510134909 | 68 | 331 | 0.9 | 0.9 | 0.00 | 0.00 | 0.00 | 85 | 987.2 |
| 20260510134409 | 68 | 298 | 0.9 | 0.9 | 0.00 | 0.00 | 0.00 | 85 | 987.0 |
| 20260510133909 | 67 | 170 | 0.0 | 0.0 | 0.00 | 0.00 | 0.00 | 86 | 987.0 |
| 20260510133409 | 67 | 0.0 | 0.0 | 0.00 | 0.00 | 0.00 | 86 | 987.2 | |
| 20260510132909 | 67 | 0.0 | 0.0 | 0.00 | 0.00 | 0.00 | 87 | 987.0 | |
| 20260510132409 | 66 | 0.0 | 0.0 | 0.00 | 0.00 | 0.00 | 88 | 987.1 | |
| 20260510131909 | 66 | 172 | 0.9 | 0.9 | 0.00 | 0.00 | 0.00 | 88 | 987.1 |
| 20260510131409 | 65 | 163 | 2.6 | 2.6 | 0.00 | 0.00 | 0.00 | 89 | 987.0 |
| 20260510130909 | 65 | 173 | 1.7 | 1.7 | 0.00 | 0.00 | 0.00 | 89 | 986.9 |
| 20260510130409 | 65 | 169 | 1.7 | 1.7 | 0.00 | 0.00 | 0.00 | 89 | 986.9 |
| 20260510125909 | 64 | 178 | 1.7 | 1.7 | 0.00 | 0.00 | 0.00 | 89 | 986.9 |
| 20260510125409 | 64 | 186 | 3.5 | 3.5 | 0.00 | 0.00 | 0.00 | 89 | 986.7 |
| 20260510124909 | 64 | 184 | 3.5 | 3.5 | 0.00 | 0.00 | 0.00 | 89 | 986.7 |
| 20260510124409 | 64 | 186 | 3.5 | 3.5 | 0.00 | 0.00 | 0.00 | 89 | 986.6 |
| 20260510123909 | 64 | 196 | 5.2 | 5.2 | 0.00 | 0.00 | 0.00 | 89 | 986.6 |
| 20260510123409 | 64 | 206 | 4.3 | 4.3 | 0.00 | 0.00 | 0.00 | 89 | 986.6 |
| 20260510122908 | 64 | 209 | 4.3 | 4.3 | 0.00 | 0.00 | 0.00 | 89 | 986.6 |
| 20260510122409 | 65 | 199 | 4.3 | 4.3 | 0.00 | 0.00 | 0.00 | 89 | 986.6 |
| 20260510121909 | 65 | 203 | 3.5 | 3.5 | 0.00 | 0.00 | 0.00 | 89 | 986.6 |
| 20260510121409 | 65 | 213 | 5.2 | 5.2 | 0.00 | 0.00 | 0.00 | 90 | 986.4 |
| 20260510120909 | 64 | 212 | 6.1 | 6.1 | 0.00 | 0.00 | 0.00 | 91 | 986.4 |
| 20260510120409 | 63 | 201 | 6.1 | 6.1 | 0.00 | 0.00 | 0.00 | 92 | 986.3 |
| 20260510115909 | 62 | 183 | 4.3 | 4.3 | 0.00 | 0.00 | 0.00 | 91 | 986.1 |
| 20260510115409 | 63 | 172 | 3.5 | 3.5 | 0.00 | 0.00 | 0.00 | 91 | 986.0 |
| 20260510114909 | 63 | 209 | 4.3 | 4.3 | 0.00 | 0.00 | 0.00 | 92 | 985.9 |
| 20260510114409 | 63 | 198 | 4.3 | 4.3 | 0.00 | 0.00 | 0.00 | 92 | 985.9 |
| 20260510113909 | 63 | 181 | 3.5 | 3.5 | 0.00 | 0.00 | 0.00 | 92 | 985.7 |
| 20260510113409 | 62 | 193 | 3.5 | 3.5 | 0.00 | 0.00 | 0.00 | 92 | 985.8 |
| 20260510112909 | 62 | 178 | 2.6 | 2.6 | 0.00 | 0.00 | 0.00 | 91 | 985.7 |
| 20260510112408 | 62 | 182 | 3.5 | 3.5 | 0.00 | 0.00 | 0.00 | 91 | 985.6 |
| 20260510111909 | 63 | 182 | 2.6 | 2.6 | 0.00 | 0.00 | 0.00 | 91 | 985.5 |
| 20260510111409 | 63 | 188 | 2.6 | 2.6 | 0.00 | 0.00 | 0.00 | 91 | 985.5 |
| 20260510110909 | 63 | 180 | 3.5 | 3.5 | 0.00 | 0.00 | 0.00 | 91 | 985.4 |
| 20260510110409 | 63 | 191 | 2.6 | 2.6 | 0.00 | 0.00 | 0.00 | 91 | 985.3 |
| 20260510105909 | 63 | 206 | 3.5 | 3.5 | 0.00 | 0.00 | 0.00 | 92 | 985.2 |
| 20260510105408 | 63 | 182 | 2.6 | 2.6 | 0.00 | 0.00 | 0.00 | 91 | 985.2 |
| 20260510104908 | 63 | 179 | 2.6 | 2.6 | 0.00 | 0.00 | 0.00 | 91 | 985.1 |
| 20260510104409 | 63 | 191 | 3.5 | 3.5 | 0.00 | 0.00 | 0.00 | 91 | 985.1 |
| 20260510103909 | 63 | 185 | 2.6 | 2.6 | 0.00 | 0.00 | 0.00 | 91 | 985.0 |
| 20260510103409 | 63 | 191 | 2.6 | 2.6 | 0.00 | 0.00 | 0.00 | 91 | 984.9 |
| 20260510102909 | 63 | 183 | 1.7 | 1.7 | 0.00 | 0.00 | 0.00 | 90 | 984.9 |
| 20260510102409 | 64 | 184 | 0.9 | 0.9 | 0.00 | 0.00 | 0.00 | 90 | 984.7 |
| 20260510101909 | 64 | 188 | 0.9 | 0.9 | 0.00 | 0.00 | 0.00 | 90 | 984.7 |
| 20260510101409 | 64 | 242 | 2.6 | 2.6 | 0.00 | 0.00 | 0.00 | 90 | 984.6 |
| 20260510100909 | 64 | 217 | 2.6 | 2.6 | 0.00 | 0.00 | 0.00 | 89 | 984.7 |
| 20260510100409 | 64 | 235 | 3.5 | 3.5 | 0.00 | 0.00 | 0.00 | 89 | 984.6 |
| 20260510095909 | 64 | 257 | 4.3 | 4.3 | 0.00 | 0.00 | 0.00 | 90 | 984.5 |
| 20260510095409 | 64 | 246 | 3.5 | 3.5 | 0.00 | 0.00 | 0.00 | 90 | 984.4 |
| 20260510094908 | 64 | 212 | 3.5 | 3.5 | 0.00 | 0.00 | 0.00 | 90 | 984.5 |
| 20260510094409 | 64 | 233 | 3.5 | 3.5 | 0.00 | 0.00 | 0.00 | 90 | 984.4 |
| 20260510093909 | 64 | 214 | 3.5 | 3.5 | 0.00 | 0.00 | 0.00 | 90 | 984.4 |
| 20260510093409 | 64 | 217 | 3.5 | 3.5 | 0.00 | 0.00 | 0.00 | 90 | 984.3 |
| 20260510092909 | 64 | 192 | 3.5 | 3.5 | 0.00 | 0.00 | 0.00 | 90 | 984.1 |
| 20260510092409 | 64 | 202 | 5.2 | 5.2 | 0.00 | 0.00 | 0.00 | 90 | 984.2 |
| 20260510091909 | 64 | 221 | 4.3 | 4.3 | 0.00 | 0.00 | 0.00 | 90 | 984.0 |
| 20260510091408 | 64 | 205 | 4.3 | 4.3 | 0.00 | 0.00 | 0.00 | 90 | 984.1 |
| 20260510090909 | 64 | 231 | 5.2 | 5.2 | 0.00 | 0.00 | 0.00 | 90 | 984.2 |
| 20260510090409 | 64 | 218 | 7.8 | 7.8 | 0.00 | 0.00 | 0.00 | 90 | 984.2 |
| 20260510085909 | 64 | 242 | 6.1 | 6.1 | 0.00 | 0.00 | 0.00 | 89 | 984.3 |
| 20260510085408 | 64 | 233 | 7.0 | 7.0 | 0.00 | 0.00 | 0.00 | 89 | 984.2 |
| 20260510084909 | 64 | 212 | 5.2 | 5.2 | 0.00 | 0.00 | 0.00 | 89 | 984.3 |
| 20260510084409 | 64 | 184 | 7.0 | 7.0 | 0.00 | 0.00 | 0.00 | 89 | 984.1 |
| 20260510083909 | 64 | 210 | 5.2 | 5.2 | 0.00 | 0.00 | 0.00 | 89 | 984.2 |
| 20260510083409 | 64 | 211 | 7.0 | 7.0 | 0.00 | 0.00 | 0.00 | 89 | 984.1 |
| 20260510082909 | 64 | 219 | 7.0 | 7.0 | 0.00 | 0.00 | 0.00 | 89 | 984.1 |
| 20260510082408 | 64 | 195 | 6.1 | 6.1 | 0.00 | 0.00 | 0.00 | 89 | 984.1 |
| 20260510081909 | 64 | 207 | 7.0 | 7.0 | 0.00 | 0.00 | 0.00 | 89 | 984.1 |
| 20260510081409 | 64 | 197 | 7.0 | 7.0 | 0.00 | 0.00 | 0.00 | 89 | 984.1 |
| 20260510080908 | 64 | 195 | 6.1 | 6.1 | 0.00 | 0.00 | 0.00 | 89 | 984.0 |
| 20260510080409 | 64 | 186 | 5.2 | 5.2 | 0.00 | 0.00 | 0.00 | 89 | 983.9 |
| 20260510075909 | 64 | 184 | 6.1 | 6.1 | 0.00 | 0.00 | 0.00 | 89 | 984.0 |
| 20260510075409 | 64 | 188 | 5.2 | 5.2 | 0.00 | 0.00 | 0.00 | 89 | 984.0 |
| 20260510074909 | 64 | 189 | 7.8 | 7.8 | 0.00 | 0.00 | 0.00 | 89 | 984.0 |
| 20260510074408 | 63 | 174 | 7.0 | 7.0 | 0.00 | 0.00 | 0.00 | 89 | 983.9 |
| 20260510073909 | 64 | 184 | 6.1 | 6.1 | 0.00 | 0.00 | 0.00 | 89 | 983.8 |
| 20260510073409 | 64 | 190 | 6.1 | 6.1 | 0.00 | 0.00 | 0.00 | 89 | 983.8 |
| 20260510072909 | 64 | 181 | 6.1 | 6.1 | 0.00 | 0.00 | 0.00 | 89 | 983.8 |
| 20260510072409 | 64 | 179 | 5.2 | 5.2 | 0.00 | 0.00 | 0.00 | 89 | 983.7 |
| 20260510071909 | 64 | 174 | 6.1 | 6.1 | 0.00 | 0.00 | 0.00 | 89 | 983.6 |
| 20260510071409 | 64 | 181 | 5.2 | 5.2 | 0.00 | 0.00 | 0.00 | 89 | 983.6 |
| 20260510070909 | 64 | 185 | 5.2 | 5.2 | 0.00 | 0.00 | 0.00 | 88 | 983.8 |
| 20260510070409 | 64 | 181 | 5.2 | 5.2 | 0.00 | 0.00 | 0.00 | 88 | 983.9 |
| 20260510065909 | 64 | 194 | 7.8 | 7.8 | 0.00 | 0.00 | 0.00 | 88 | 983.9 |
| 20260510065409 | 64 | 198 | 7.0 | 7.0 | 0.00 | 0.00 | 0.00 | 88 | 983.8 |
| 20260510064909 | 64 | 191 | 6.1 | 6.1 | 0.00 | 0.00 | 0.00 | 89 | 983.9 |
| 20260510064409 | 64 | 180 | 5.2 | 5.2 | 0.00 | 0.00 | 0.00 | 88 | 983.9 |
| 20260510063909 | 64 | 183 | 5.2 | 5.2 | 0.00 | 0.00 | 0.00 | 89 | 984.0 |
| 20260510063409 | 64 | 181 | 6.1 | 6.1 | 0.00 | 0.00 | 0.00 | 88 | 983.9 |
| 20260510062909 | 64 | 191 | 7.0 | 7.0 | 0.00 | 0.00 | 0.00 | 88 | 983.9 |
| 20260510062409 | 64 | 190 | 5.2 | 5.2 | 0.00 | 0.00 | 0.00 | 88 | 983.9 |
| 20260510061909 | 64 | 182 | 7.0 | 7.0 | 0.00 | 0.00 | 0.00 | 88 | 983.8 |
| 20260510061409 | 64 | 186 | 5.2 | 5.2 | 0.00 | 0.00 | 0.00 | 88 | 983.9 |
| 20260510060909 | 64 | 197 | 4.3 | 4.3 | 0.00 | 0.00 | 0.00 | 88 | 983.9 |
| 20260510060408 | 64 | 186 | 5.2 | 5.2 | 0.00 | 0.00 | 0.00 | 87 | 983.9 |
| 20260510055909 | 65 | 179 | 5.2 | 5.2 | 0.00 | 0.00 | 0.00 | 87 | 983.9 |
| 20260510055409 | 65 | 177 | 6.1 | 6.1 | 0.00 | 0.00 | 0.00 | 87 | 983.8 |
| 20260510054909 | 65 | 174 | 7.0 | 7.0 | 0.00 | 0.00 | 0.00 | 87 | 983.8 |
| 20260510054409 | 65 | 182 | 6.1 | 6.1 | 0.00 | 0.00 | 0.00 | 87 | 983.9 |
| 20260510053909 | 65 | 185 | 5.2 | 5.2 | 0.00 | 0.00 | 0.00 | 87 | 983.8 |
| 20260510053408 | 65 | 180 | 8.7 | 8.7 | 0.00 | 0.00 | 0.00 | 86 | 983.8 |
| 20260510052909 | 65 | 174 | 7.0 | 7.0 | 0.00 | 0.00 | 0.00 | 86 | 983.7 |
| 20260510052408 | 66 | 181 | 6.1 | 6.1 | 0.00 | 0.00 | 0.00 | 86 | 983.7 |
| 20260510051909 | 66 | 172 | 8.7 | 8.7 | 0.00 | 0.00 | 0.00 | 86 | 983.8 |
| 20260510051409 | 65 | 180 | 8.7 | 8.7 | 0.00 | 0.00 | 0.00 | 86 | 983.9 |
| 20260510050909 | 65 | 184 | 8.7 | 8.7 | 0.00 | 0.00 | 0.00 | 86 | 984.0 |
| 20260510050409 | 65 | 171 | 7.0 | 7.0 | 0.00 | 0.00 | 0.00 | 87 | 983.9 |
| 20260510045909 | 65 | 172 | 7.0 | 7.0 | 0.00 | 0.00 | 0.00 | 87 | 983.8 |
| 20260510045409 | 65 | 173 | 7.8 | 7.8 | 0.00 | 0.00 | 0.00 | 87 | 983.8 |
| 20260510044909 | 65 | 176 | 10.4 | 10.4 | 0.00 | 0.00 | 0.00 | 87 | 983.6 |
| 20260510044409 | 65 | 161 | 9.6 | 9.6 | 0.00 | 0.00 | 0.00 | 87 | 983.8 |
| 20260510043909 | 65 | 171 | 11.3 | 11.3 | 0.00 | 0.00 | 0.00 | 88 | 983.7 |
| 20260510043409 | 65 | 169 | 9.6 | 9.6 | 0.00 | 0.00 | 0.00 | 88 | 983.6 |
| 20260510042909 | 65 | 175 | 11.3 | 11.3 | 0.00 | 0.00 | 0.00 | 88 | 983.8 |
| 20260510042409 | 65 | 179 | 8.7 | 8.7 | 0.00 | 0.00 | 0.00 | 88 | 983.8 |
| 20260510041909 | 65 | 175 | 9.6 | 9.6 | 0.00 | 0.00 | 0.00 | 88 | 984.0 |
| 20260510041409 | 65 | 164 | 10.4 | 10.4 | 0.00 | 0.00 | 0.00 | 88 | 984.0 |
| 20260510040909 | 65 | 178 | 9.6 | 9.6 | 0.00 | 0.00 | 0.00 | 88 | 984.0 |
| 20260510040409 | 65 | 176 | 13.0 | 13.0 | 0.00 | 0.00 | 0.00 | 88 | 984.0 |
| 20260510035909 | 65 | 174 | 10.4 | 10.4 | 0.00 | 0.00 | 0.00 | 88 | 984.1 |
| 20260510035409 | 65 | 176 | 10.4 | 10.4 | 0.00 | 0.00 | 0.00 | 88 | 984.1 |
| 20260510034909 | 65 | 178 | 7.8 | 7.8 | 0.00 | 0.00 | 0.00 | 87 | 984.2 |
| 20260510034409 | 65 | 177 | 11.3 | 11.3 | 0.00 | 0.00 | 0.00 | 87 | 984.3 |
| 20260510033909 | 65 | 185 | 9.6 | 9.6 | 0.00 | 0.00 | 0.00 | 87 | 984.2 |
| 20260510033409 | 65 | 176 | 10.4 | 10.4 | 0.00 | 0.00 | 0.00 | 87 | 984.2 |
| 20260510032909 | 66 | 182 | 9.6 | 9.6 | 0.00 | 0.00 | 0.00 | 86 | 984.2 |
| 20260510032409 | 66 | 180 | 9.6 | 9.6 | 0.00 | 0.00 | 0.00 | 86 | 984.2 |
| 20260510031909 | 66 | 183 | 11.3 | 11.3 | 0.00 | 0.00 | 0.00 | 85 | 984.2 |
| 20260510031409 | 66 | 176 | 9.6 | 9.6 | 0.00 | 0.00 | 0.00 | 85 | 984.0 |
| 20260510030909 | 67 | 188 | 10.4 | 10.4 | 0.00 | 0.00 | 0.00 | 85 | 984.0 |
| 20260510030409 | 67 | 172 | 7.0 | 7.0 | 0.00 | 0.00 | 0.00 | 84 | 984.0 |
| 20260510025909 | 67 | 171 | 7.0 | 7.0 | 0.00 | 0.00 | 0.00 | 83 | 983.9 |
| 20260510025409 | 67 | 176 | 9.6 | 9.6 | 0.00 | 0.00 | 0.00 | 82 | 983.9 |
| 20260510024909 | 68 | 174 | 9.6 | 9.6 | 0.00 | 0.00 | 0.00 | 82 | 983.8 |
| 20260510024409 | 68 | 173 | 10.4 | 10.4 | 0.00 | 0.00 | 0.00 | 82 | 983.7 |
| 20260510023908 | 68 | 171 | 8.7 | 8.7 | 0.00 | 0.00 | 0.00 | 81 | 983.5 |
| 20260510023409 | 68 | 176 | 7.8 | 7.8 | 0.00 | 0.00 | 0.00 | 80 | 983.6 |
| 20260510022909 | 68 | 170 | 7.0 | 7.0 | 0.00 | 0.00 | 0.00 | 80 | 983.4 |
| 20260510022409 | 68 | 170 | 7.8 | 7.8 | 0.00 | 0.00 | 0.00 | 79 | 983.4 |
| 20260510021909 | 69 | 174 | 8.7 | 8.7 | 0.00 | 0.00 | 0.00 | 79 | 983.3 |
| 20260510021409 | 69 | 172 | 7.0 | 7.0 | 0.00 | 0.00 | 0.00 | 80 | 983.2 |
| 20260510020909 | 69 | 172 | 6.1 | 6.1 | 0.00 | 0.00 | 0.00 | 80 | 983.2 |
| 20260510020409 | 69 | 171 | 6.1 | 6.1 | 0.00 | 0.00 | 0.00 | 79 | 983.1 |
| 20260510015909 | 69 | 176 | 7.0 | 7.0 | 0.00 | 0.00 | 0.00 | 79 | 983.0 |
| 20260510015409 | 69 | 172 | 8.7 | 8.7 | 0.00 | 0.00 | 0.00 | 79 | 982.8 |
| 20260510014909 | 69 | 172 | 6.1 | 6.1 | 0.00 | 0.00 | 0.00 | 80 | 982.7 |
| 20260510014409 | 69 | 169 | 5.2 | 5.2 | 0.00 | 0.00 | 0.00 | 80 | 982.7 |
| 20260510013909 | 69 | 173 | 7.0 | 7.0 | 0.00 | 0.00 | 0.00 | 79 | 982.6 |
| 20260510013409 | 70 | 177 | 7.0 | 7.0 | 0.00 | 0.00 | 0.00 | 78 | 982.3 |
| 20260510012909 | 70 | 179 | 6.1 | 6.1 | 0.00 | 0.00 | 0.00 | 78 | 982.2 |
| 20260510012409 | 70 | 176 | 6.1 | 6.1 | 0.00 | 0.00 | 0.00 | 77 | 982.1 |
| 20260510011909 | 70 | 179 | 7.8 | 7.8 | 0.00 | 0.00 | 0.00 | 78 | 982.2 |
| 20260510011409 | 70 | 177 | 7.0 | 7.0 | 0.00 | 0.00 | 0.00 | 78 | 982.0 |
| 20260510010909 | 70 | 169 | 4.3 | 4.3 | 0.00 | 0.00 | 0.00 | 78 | 982.0 |
| 20260510010409 | 70 | 163 | 6.1 | 6.1 | 0.00 | 0.00 | 0.00 | 78 | 982.0 |
| 20260510005909 | 71 | 177 | 5.2 | 5.2 | 0.00 | 0.00 | 0.00 | 76 | 981.9 |
| 20260510005409 | 71 | 184 | 5.2 | 5.2 | 0.00 | 0.00 | 0.00 | 76 | 981.8 |
| 20260510004909 | 71 | 175 | 5.2 | 5.2 | 0.00 | 0.00 | 0.00 | 76 | 981.7 |
| 20260510004409 | 71 | 176 | 4.3 | 4.3 | 0.00 | 0.00 | 0.00 | 75 | 981.6 |
| 20260510003909 | 72 | 181 | 5.2 | 5.2 | 0.00 | 0.00 | 0.00 | 75 | 981.6 |
| 20260510003409 | 72 | 183 | 4.3 | 4.3 | 0.00 | 0.00 | 0.00 | 74 | 981.5 |
| 20260510002909 | 72 | 181 | 5.2 | 5.2 | 0.00 | 0.00 | 0.00 | 73 | 981.6 |
| 20260510002409 | 73 | 181 | 6.1 | 6.1 | 0.00 | 0.00 | 0.00 | 72 | 981.5 |
| 20260510001909 | 74 | 183 | 5.2 | 5.2 | 0.00 | 0.00 | 0.00 | 71 | 981.5 |
| 20260510001408 | 74 | 188 | 4.3 | 4.3 | 0.00 | 0.00 | 0.00 | 68 | 981.4 |
| 20260510000909 | 75 | 188 | 4.3 | 4.3 | 0.00 | 0.00 | 0.00 | 66 | 981.5 |
| 20260510000411 | 75 | 188 | 3.5 | 3.5 | 0.00 | 0.00 | 0.00 | 66 | 981.4 |
| 20260509235909 | 75 | 195 | 3.5 | 3.5 | 0.00 | 0.00 | 0.00 | 65 | 981.3 |
| 20260509235408 | 75 | 201 | 4.3 | 4.3 | 0.00 | 0.00 | 0.00 | 65 | 981.3 |
| 20260509234909 | 75 | 193 | 3.5 | 3.5 | 0.00 | 0.00 | 0.00 | 66 | 981.4 |
| 20260509234409 | 75 | 188 | 2.6 | 2.6 | 0.00 | 0.00 | 0.00 | 66 | 981.3 |
| 20260509233909 | 75 | 187 | 3.5 | 3.5 | 0.00 | 0.00 | 0.00 | 66 | 981.4 |
| 20260509233409 | 75 | 189 | 3.5 | 3.5 | 0.00 | 0.00 | 0.00 | 67 | 981.2 |
| 20260509232909 | 75 | 183 | 2.6 | 2.6 | 0.00 | 0.00 | 0.00 | 66 | 981.4 |
| 20260509232409 | 75 | 181 | 2.6 | 2.6 | 0.00 | 0.00 | 0.00 | 66 | 981.2 |
| 20260509231909 | 75 | 180 | 1.7 | 1.7 | 0.00 | 0.00 | 0.00 | 66 | 981.3 |
| 20260509231408 | 75 | 195 | 2.6 | 2.6 | 0.00 | 0.00 | 0.00 | 66 | 981.3 |
| 20260509230909 | 75 | 186 | 1.7 | 1.7 | 0.00 | 0.00 | 0.00 | 66 | 981.4 |
| 20260509230409 | 75 | 193 | 2.6 | 2.6 | 0.00 | 0.00 | 0.00 | 64 | 981.3 |
| 20260509225908 | 75 | 204 | 2.6 | 2.6 | 0.00 | 0.00 | 0.00 | 65 | 981.2 |
| 20260509225409 | 75 | 179 | 2.6 | 2.6 | 0.00 | 0.00 | 0.00 | 64 | 981.2 |
| 20260509224909 | 75 | 193 | 1.7 | 1.7 | 0.00 | 0.00 | 0.00 | 64 | 981.1 |
| 20260509224408 | 74 | 234 | 3.5 | 3.5 | 0.00 | 0.00 | 0.00 | 64 | 981.2 |
| 20260509223909 | 74 | 206 | 3.5 | 3.5 | 0.00 | 0.00 | 0.00 | 63 | 981.0 |
| 20260509223409 | 74 | 200 | 3.5 | 3.5 | 0.00 | 0.00 | 0.00 | 63 | 981.1 |
| 20260509222909 | 74 | 205 | 5.2 | 5.2 | 0.00 | 0.00 | 0.00 | 63 | 981.0 |
| 20260509222409 | 74 | 182 | 2.6 | 2.6 | 0.00 | 0.00 | 0.00 | 64 | 981.0 |
| 20260509221909 | 74 | 184 | 2.6 | 2.6 | 0.00 | 0.00 | 0.00 | 63 | 981.0 |
| 20260509221409 | 75 | 179 | 4.3 | 4.3 | 0.00 | 0.00 | 0.00 | 61 | 981.0 |
| 20260509220909 | 75 | 203 | 2.6 | 2.6 | 0.00 | 0.00 | 0.00 | 61 | 980.9 |
| 20260509220409 | 75 | 208 | 4.3 | 4.3 | 0.00 | 0.00 | 0.00 | 63 | 980.9 |
| 20260509215909 | 75 | 199 | 3.5 | 3.5 | 0.00 | 0.00 | 0.00 | 63 | 980.7 |
| 20260509215408 | 75 | 219 | 3.5 | 3.5 | 0.00 | 0.00 | 0.00 | 60 | 980.7 |
| 20260509214908 | 75 | 233 | 1.7 | 1.7 | 0.00 | 0.00 | 0.00 | 64 | 980.7 |
| 20260509214409 | 75 | 219 | 7.0 | 7.0 | 0.00 | 0.00 | 0.00 | 63 | 980.7 |
| 20260509213909 | 75 | 214 | 4.3 | 4.3 | 0.00 | 0.00 | 0.00 | 62 | 980.8 |
| 20260509213408 | 75 | 218 | 4.3 | 4.3 | 0.00 | 0.00 | 0.00 | 63 | 980.7 |
| 20260509212908 | 75 | 176 | 4.3 | 4.3 | 0.00 | 0.00 | 0.00 | 61 | 980.7 |
| 20260509212409 | 75 | 216 | 5.2 | 5.2 | 0.00 | 0.00 | 0.00 | 60 | 980.8 |
| 20260509211909 | 75 | 193 | 5.2 | 5.2 | 0.00 | 0.00 | 0.00 | 60 | 980.8 |
| 20260509211409 | 75 | 219 | 2.6 | 2.6 | 0.00 | 0.00 | 0.00 | 61 | 980.9 |
| 20260509210909 | 75 | 200 | 3.5 | 3.5 | 0.00 | 0.00 | 0.00 | 61 | 980.9 |
| 20260509210409 | 75 | 175 | 7.0 | 7.0 | 0.00 | 0.00 | 0.00 | 60 | 980.8 |
| 20260509205909 | 75 | 204 | 3.5 | 3.5 | 0.00 | 0.00 | 0.00 | 58 | 980.9 |
| 20260509205409 | 75 | 233 | 1.7 | 1.7 | 0.00 | 0.00 | 0.00 | 58 | 980.9 |
| 20260509204909 | 75 | 245 | 3.5 | 3.5 | 0.00 | 0.00 | 0.00 | 60 | 980.8 |
| 20260509204408 | 75 | 270 | 4.3 | 4.3 | 0.00 | 0.00 | 0.00 | 60 | 981.0 |
| 20260509203909 | 75 | 284 | 1.7 | 1.7 | 0.00 | 0.00 | 0.00 | 59 | 981.0 |
| 20260509203409 | 75 | 304 | 2.6 | 2.6 | 0.00 | 0.00 | 0.00 | 60 | 981.1 |
| 20260509202909 | 76 | 243 | 6.1 | 6.1 | 0.00 | 0.00 | 0.00 | 56 | 981.2 |
| 20260509202409 | 75 | 227 | 2.6 | 2.6 | 0.00 | 0.00 | 0.00 | 61 | 981.1 |
| 20260509201909 | 75 | 176 | 3.5 | 3.5 | 0.00 | 0.00 | 0.00 | 58 | 981.4 |
| 20260509201409 | 75 | 211 | 1.7 | 1.7 | 0.00 | 0.00 | 0.00 | 62 | 981.3 |
| 20260509200909 | 74 | 200 | 4.3 | 4.3 | 0.00 | 0.00 | 0.00 | 59 | 981.5 |
| 20260509200409 | 75 | 195 | 5.2 | 5.2 | 0.00 | 0.00 | 0.00 | 61 | 981.3 |
| 20260509195909 | 74 | 207 | 5.2 | 5.2 | 0.00 | 0.00 | 0.00 | 58 | 981.2 |
| 20260509195409 | 75 | 312 | 2.6 | 2.6 | 0.00 | 0.00 | 0.00 | 60 | 981.4 |
| 20260509194909 | 75 | 191 | 1.7 | 1.7 | 0.00 | 0.00 | 0.00 | 57 | 981.2 |
| 20260509194409 | 75 | 222 | 3.5 | 3.5 | 0.00 | 0.00 | 0.00 | 60 | 981.4 |
| 20260509193909 | 75 | 270 | 4.3 | 4.3 | 0.00 | 0.00 | 0.00 | 59 | 981.5 |
| 20260509193409 | 74 | 183 | 0.9 | 0.9 | 0.00 | 0.00 | 0.00 | 58 | 981.3 |
| 20260509192909 | 75 | 184 | 7.0 | 7.0 | 0.00 | 0.00 | 0.00 | 56 | 981.2 |
| 20260509192409 | 75 | 239 | 0.9 | 0.9 | 0.00 | 0.00 | 0.00 | 58 | 981.2 |
| 20260509191909 | 75 | 245 | 6.1 | 6.1 | 0.00 | 0.00 | 0.00 | 61 | 981.4 |
| 20260509191409 | 75 | 214 | 3.5 | 3.5 | 0.00 | 0.00 | 0.00 | 59 | 981.3 |
| 20260509190909 | 74 | 217 | 1.7 | 1.7 | 0.00 | 0.00 | 0.00 | 61 | 981.3 |
| 20260509190409 | 74 | 274 | 5.2 | 5.2 | 0.00 | 0.00 | 0.00 | 59 | 981.4 |
| 20260509185909 | 75 | 289 | 7.0 | 7.0 | 0.00 | 0.00 | 0.00 | 61 | 981.6 |
| 20260509185409 | 75 | 164 | 5.2 | 5.2 | 0.00 | 0.00 | 0.00 | 60 | 981.7 |
| 20260509184908 | 74 | 294 | 5.2 | 5.2 | 0.00 | 0.00 | 0.00 | 62 | 981.7 |
| 20260509184409 | 74 | 201 | 4.3 | 4.3 | 0.00 | 0.00 | 0.00 | 59 | 981.8 |
| 20260509183909 | 74 | 212 | 3.5 | 3.5 | 0.00 | 0.00 | 0.00 | 63 | 981.8 |
| 20260509183409 | 74 | 123 | 2.6 | 2.6 | 0.00 | 0.00 | 0.00 | 63 | 981.8 |
| 20260509182909 | 74 | 261 | 6.1 | 6.1 | 0.00 | 0.00 | 0.00 | 65 | 981.8 |
| 20260509182409 | 74 | 257 | 7.8 | 7.8 | 0.00 | 0.00 | 0.00 | 64 | 981.9 |
| 20260509181909 | 73 | 199 | 5.2 | 5.2 | 0.00 | 0.00 | 0.00 | 65 | 981.8 |
| 20260509181409 | 73 | 244 | 9.6 | 9.6 | 0.00 | 0.00 | 0.00 | 65 | 981.9 |
| 20260509180909 | 73 | 202 | 5.2 | 5.2 | 0.00 | 0.00 | 0.00 | 67 | 981.7 |
| 20260509180409 | 73 | 158 | 8.7 | 8.7 | 0.00 | 0.00 | 0.00 | 66 | 981.8 |
| 20260509175909 | 72 | 209 | 10.4 | 10.4 | 0.00 | 0.00 | 0.00 | 70 | 981.8 |
| 20260509175409 | 72 | 183 | 9.6 | 9.6 | 0.00 | 0.00 | 0.00 | 67 | 981.8 |
| 20260509174909 | 72 | 194 | 7.8 | 7.8 | 0.00 | 0.00 | 0.00 | 68 | 982.0 |
| 20260509174409 | 72 | 169 | 5.2 | 5.2 | 0.00 | 0.00 | 0.00 | 68 | 981.8 |
| 20260509173908 | 72 | 188 | 9.6 | 9.6 | 0.00 | 0.00 | 0.00 | 67 | 981.8 |
| 20260509173409 | 72 | 220 | 5.2 | 5.2 | 0.00 | 0.00 | 0.00 | 70 | 981.9 |
| 20260509172909 | 72 | 172 | 6.1 | 6.1 | 0.00 | 0.00 | 0.00 | 68 | 981.9 |
| 20260509172409 | 71 | 263 | 6.1 | 6.1 | 0.00 | 0.00 | 0.00 | 71 | 981.9 |
| 20260509171909 | 72 | 189 | 3.5 | 3.5 | 0.00 | 0.00 | 0.00 | 70 | 982.1 |
| 20260509171409 | 71 | 188 | 3.5 | 3.5 | 0.00 | 0.00 | 0.00 | 70 | 982.0 |
| 20260509170909 | 72 | 155 | 7.8 | 7.8 | 0.00 | 0.00 | 0.00 | 71 | 981.9 |
| 20260509170409 | 71 | 278 | 1.7 | 1.7 | 0.00 | 0.00 | 0.00 | 72 | 981.9 |
| 20260509165909 | 70 | 203 | 3.5 | 3.5 | 0.00 | 0.00 | 0.00 | 72 | 981.9 |
| 20260509165409 | 71 | 184 | 4.3 | 4.3 | 0.00 | 0.00 | 0.00 | 72 | 982.0 |
| 20260509164909 | 70 | 266 | 1.7 | 1.7 | 0.00 | 0.00 | 0.00 | 70 | 982.2 |